Aérodrome :
LOGIN :

S'inscrire | Disclaimer

   EN    FR    IT 

 










Légende :    VFR   VFR Marginal   IFR   IFR Intensif   IFR Très Intensif
Visi : 
Plafond : 
>= 8 km
>= 3000ft
5 à 8 km
1000 à 3000 ft
1500m à 5 km
500 à 1000 ft
800 à 1500m
200 à 500 ft
< 800m
< 200 ft
Symboles :   Orages  Brouillard  Fortes neiges  Fortes précipitations  Vent > 20 kt
SIGMETs :   Divers  Orages  Givrage  Turbulence  Onde Orograph.  Cendres Volcan.







- Altitude de l'aérodrome : 348 ft
- Code IATA : LDV
- Voir les cartes d'approche


LFRJ - Landivisiau

DERNIER METAR :
  • 230830Z AUTO 26007KT 9999 SCT025 OVC033 17/12 Q1022 NOSIG

METARs EXPIRÉS :
  • 230800Z AUTO 23007KT 9999 OVC031 16/12 Q1022 NOSIG
  • 230730Z AUTO 26005KT 9999 OVC025 16/12 Q1022 NOSIG
  • 230700Z AUTO 26007KT 9999 OVC022 15/12 Q1021 NOSIG
  • 230630Z AUTO 25004KT 9999 OVC022 15/12 Q1021 NOSIG
  • 230600Z AUTO 28007KT 9999 OVC019 15/12 Q1021 NOSIG

TAF TAF LFRJ
Valide du 23 à 09h jusqu'au 23 à 18h UTC


230800Z 2309/2318 23008KT 9999 BKN025
Pas de NOTAMs connus pour ce terrain.



MET'MAP, la Météo Aéronautique d'un coup d'oeil ! - Copyright ORBIFLY Décembre 2007 - Disclaimer

ORBIFLY MET'MAP TEAM :

Programmation & Développement : Alexandra Zaïnal
Conception & Développement : Baudouin d'Aumeries
Co-Programmation & Développement : Marc-Olivier Méhu
Soutien technique & logistique : Manuel Goepfert

Contact : metmap@orbifly.com




SOURCES & CREDITS :

   NOAA